FW9685 Weather Reports


Display with metric or nautical units.
time (UTC)temp
F
wind
direction
speed
MPH
gust
MPH
rain 1hr
in
rain 24hr
in
rain mn
in
humidity
%
barometer
mb
20260504194613 85 234 17.0 23.0 0.00 0.00 0.00 23 1011.4
20260504193053 84 262 14.0 23.0 0.00 0.00 0.00 25 1011.4
20260504191558 84 252 16.0 24.0 0.00 0.00 0.00 24 1011.6
20260504190121 84 236 12.0 23.0 0.00 0.00 0.00 29 1011.7
20260504184559 83 253 16.0 23.0 0.00 0.00 0.00 30 1012.3
20260504183056 82 235 14.0 21.0 0.00 0.00 0.00 33 1012.4
20260504181555 81 223 17.0 23.0 0.00 0.00 0.00 34 1012.5
20260504180054 82 230 16.0 25.0 0.00 0.00 0.00 33 1012.5
20260504174555 82 241 16.0 24.0 0.00 0.00 0.00 35 1012.7
20260504173052 82 216 15.0 23.0 0.00 0.00 0.00 37 1013.2
20260504171553 80 202 14.0 21.0 0.00 0.00 0.00 39 1012.9
20260504081600 62 171 9.0 14.0 0.00 0.00 0.00 61 1013.2
20260504060120 64 188 13.0 20.0 0.00 0.00 0.00 57 1014.8
20260504050117 65 161 10.0 17.0 0.00 0.00 0.00 54 1015.4
20260504044553 65 167 11.0 17.0 0.00 0.00 0.00 53 1015.5
20260504043108 66 157 10.0 21.0 0.00 0.00 0.00 52 1015.7
20260504041555 66 168 11.0 18.0 0.00 0.00 0.00 51 1015.8
20260504040109 67 167 10.0 16.0 0.00 0.00 0.00 51 1015.8
20260504034551 67 173 10.0 21.0 0.00 0.00 0.00 50 1015.7
20260504033057 68 155 11.0 20.0 0.00 0.00 0.00 49 1015.7
20260504031604 68 167 10.0 19.0 0.00 0.00 0.00 48 1015.7
20260504030053 68 165 11.0 21.0 0.00 0.00 0.00 47 1015.8
20260504024553 69 165 13.0 18.0 0.00 0.00 0.00 46 1015.6
20260504023054 70 173 12.0 18.0 0.00 0.00 0.00 45 1015.6
20260504021555 70 150 10.0 16.0 0.00 0.00 0.00 43 1015.3
20260504020053 70 146 9.0 15.0 0.00 0.00 0.00 42 1015.5
20260504014601 71 153 9.0 15.0 0.00 0.00 0.00 41 1015.6
20260504013107 71 161 11.0 16.0 0.00 0.00 0.00 39 1015.4
20260504011554 72 167 11.0 16.0 0.00 0.00 0.00 38 1015.3
20260504010112 73 177 8.0 16.0 0.00 0.00 0.00 37 1015.3
20260504004555 73 179 8.0 16.0 0.00 0.00 0.00 36 1015.3
20260504003053 74 177 9.0 18.0 0.00 0.00 0.00 36 1015.7
20260504001559 74 165 9.0 17.0 0.00 0.00 0.00 36 1015.9
20260504000059 74 175 11.0 18.0 0.00 0.00 0.00 35 1015.8
20260503234555 75 161 9.0 20.0 0.00 0.00 0.00 35 1015.9
20260503233100 74 155 9.0 17.0 0.00 0.00 0.00 36 1016.3
20260503231555 74 192 10.0 22.0 0.00 0.00 0.00 36 1016.1
20260503230054 74 168 8.0 16.0 0.00 0.00 0.00 36 1016.3
20260503224555 74 176 10.0 21.0 0.00 0.00 0.00 36 1016.4
20260503223055 74 207 14.0 23.0 0.00 0.00 0.00 36 1016.9
20260503221559 74 174 7.0 19.0 0.00 0.00 0.00 36 1016.8
20260503220104 74 194 13.0 19.0 0.00 0.00 0.00 38 1017.0
20260503214558 73 210 11.0 21.0 0.00 0.00 0.00 37 1017.2
20260503213100 73 171 9.0 21.0 0.00 0.00 0.00 37 1017.4
20260503211559 73 163 11.0 19.0 0.00 0.00 0.00 37 1017.6
20260503210058 74 177 9.0 17.0 0.00 0.00 0.00 36 1018.1
20260503204606 73 200 13.0 20.0 0.00 0.00 0.00 36 1018.4
20260503203107 73 187 9.0 20.0 0.00 0.00 0.00 36 1018.5
20260503201558 73 190 10.0 20.0 0.00 0.00 0.00 37 1018.7
20260503200057 72 171 7.0 19.0 0.00 0.00 0.00 38 1019.0